CZ-6A DEB

Satellite information

Favourite Embed

Satellite Type and Status

DEBRISIN ORBIT

Key statistics

Satellite CZ-6A DEB at a glance.

Uptime

1128

Days in orbit

Revolutions

≈ 14.0

Per day

Orbit

SSO

Sun Synchronous Orbit

Inclination

98.8

Latest

Satellite identification and parameters

Extended collection of information and parameters for CZ-6A DEB.

Object identification

Identified? True

Debris? True

Object name: CZ-6A DEB

International designator: 2022-151XB

Object number (NORAD): 55234

Object ID (CCSDS): 55234

Country: PEOPLES REPUBLIC OF CHINA (PRC)

Current information (Y/N): Y

RCS size: SMALL

Orbital parameters

Period: 103.086 minutes

Inclination: 98.8411 deg

SMA: 7282.721 km

Apoapsis: 984.185 km

Periapsis: 824.988 km

RAAN: 314.4396 deg

Eccentricy: 0.0109298

Argument of periapsis: 215.97 deg

Mean anomaly: 143.4073 deg

Mean motion: 13.96890052 rev/day

Mean motion (dot): 0.00000774 rev/day2

B* drag term: 0.00055816347 1/REarth

Two-line elements (TLE)

Creation date: Dec. 11, 2025, 7:14 p.m.

Reference frame: TEME

Reference center: EARTH

Epoch: Dec. 11, 2025, 8:57 a.m. UTC

TLE line 0: 0 CZ-6A DEB

TLE line 1: 1 55234U 22151XB 25345.37343494 .00000774 00000-0 55816-3 0 9992

TLE line 2: 2 55234 98.8411 314.4396 0109298 215.9700 143.4073 13.96890052156776

Live tracking on map

Real-time ground track for satellite CZ-6A DEB.

In-orbit conjunctions

A list of the most updated potential collisions computed for object CZ-6A DEB.

Target Orbit TCA Probability of collision Miss distance Type
CZ-6A DEB SSO 2025-09-27 11:08:35 0.0001783196 396.0 (m) DEBRIS
METEOR 2-8 DEB LEO 2024-08-27 01:41:23 0.0001505936 223.0 (m) DEBRIS

Associated space launch

Chinese satellite reported for atmospheric/ocean/environmental/spatial parameter research purposes, details TBD.

CZ-6A DEB was lifted into orbit during the mission ‘Long March 6A | Yunhai 3’, on board a Long March 6A space rocket.

The launch took place on Nov. 11, 2022, 10:52 p.m. from Launch Complex 9A.

For more information about the launch, click the button.

Launch to space Long March 6A | Yunhai 3
Long March 6A | Yunhai 3

Agency: N/A

Status: Launch Successful

Launch date: Nov. 11, 2022, 10:52 p.m. UTC

Rocket: Long March 6A

Launch pad: Launch Complex 9A

Location: Taiyuan Satellite Launch Center, People's Republic of China

...

Latest news about this satellite

There are no fresh news available about this satellite. Check back as we update our databases every day.


Newsletter sign-up

Weekly statistics, charts and insights to help you stay on top of the space industry.